map of NTE home
NTE - Airport
Location
City:  Nantes, Pays de la Loire, France
Name:Atlantique
Old (Alt.):Château Bougon
ICAO:LFRS
IATA:NTE

Details
Type:Airport (Aerodrome, Airfield)
Use:Public/Civil
Latitude:47°09'25"N (47.156944)
Longitude:1°36'28"W (-1.607777)
Elevation:90 ft (27 m)
Variation:0.43°W (WMM2015 magnetic declination)
0.13° annual change
Runways:1
Longest:9514 × 148 ft (2900 × 45 m), paved

Time
Time Zone:UTC+1 (DST+2)
Local Time:

Weather
METAR:LFRS 190200Z AUTO VRB03KT CAVOK 18/14 Q1016 NOSIG
TAF:LFRS 182300Z 1900/2006 VRB03KT CAVOK
FM190900 36005KT 9999 SCT060TCU
TEMPO 1909/2006 4900 -SHRA SCT060CB PROB30
TEMPO 1912/1921 VRB15G35KT 2500 TSRA BKN060CB

Related Locations
Nearby:
Farthest:CHT: 12095 mi / 19465 km
Waitangi [Tuuta], CIT, NZ

Find:

   beyond  
but within

Other Information
Maps:
NOTAMs:
Links:
Sources:

  
  • flag of France
  • flag of Pays de la Loire
  

Sectional Chart

Flight Planning
at skyvector.com

Satellite Image

Google Maps Satellite view

 

Copyright © 2004-2018 Karl L. Swartz. All rights reserved.
The Great Circle Mapper name and logo are trademarks of the Great Circle Mapper.
All other trademarks mentioned herein belong to their respective owners.
Please see credits for attibutions and further copyright information.

  Follow gcmap on Facebook Follow gcmap on Twitter Follow gcmap on Google+ GCmap on LinkedIn

hCard Microformat

Geo Microformat